Rochester, NH

7:50 AM EST on November 20, 2017 (GMT -0500)
Skyhaven

Weather History for KDAW - March, 2012

Change the Weather History Date:

Monday, March 26, 2012

  Actual Average (KPSM) Record (KPSM)
Temperature  
Mean Temperature 36 °F -  
Max Temperature 44 °F 45 °F 74 °F (1986)
Min Temperature 28 °F 30 °F 9 °F (1983)
Degree Days  
Heating Degree Days 30    
Moisture  
Dew Point 25 °F    
Average Humidity 68    
Maximum Humidity 100    
Minimum Humidity 34    
Precipitation  
Precipitation 0.00 in - - ()
Sea Level Pressure  
Sea Level Pressure 29.72 in    
Wind  
Wind Speed 6 mph (NW)    
Max Wind Speed 30 mph    
Max Gust Speed 40 mph    
Visibility 8 miles    
Events Fog    
Averages and records for this station are not official NWS values.
T = Trace of Precipitation, MM = Missing Value Source: NWS Daily Summary

Daily Weather History Graph

Daily Weather History Graph

Search for Another Location

Airport or City:

Trip Planner

Search our weather history database for the weather conditions in past years. The results will help you decide how hot, cold, wet, or windy it might be!

Date:

Astronomy

Mar. 26, 2012 Rise Set
Actual Time 6:35 AM EDT 7:03 PM EDT
Civil Twilight 6:06 AM EDT 7:32 PM EDT
Nautical Twilight 5:33 AM EDT 8:06 PM EDT
Astronomical Twilight 4:58 AM EDT 8:40 PM EDT
Moon 8:15 AM EDT (3/26) 11:19 PM EDT (3/26)
Length of Visible Light 13h 25m
Length of Day
12h 28m
Waxing Crescent, 14% of the Moon is Illuminated
Mar 26
Waxing Crescent
Mar 30
First Quarter
Apr 6
Full
Apr 13
Last Quarter
Apr 21
New

Hourly Weather History & Observations

Time (EDT) Temp. Windchill Dew Point Humidity Pressure Visibility Wind Dir Wind Speed Gust Speed Precip Events Conditions
12:18 AM 39.2 °F - 37.4 °F 93% 29.70 in 10.0 mi Calm Calm - N/A   Overcast
12:34 AM 39.2 °F - 37.4 °F 93% 29.70 in 10.0 mi Calm Calm - N/A   Overcast
12:51 AM 39.0 °F - 37.0 °F 93% 29.69 in 10.0 mi Calm Calm - N/A   Overcast
1:51 AM 37.9 °F - 37.0 °F 97% 29.66 in 9.0 mi Calm Calm - N/A   Clear
2:51 AM 37.0 °F - 36.0 °F 96% 29.63 in 6.0 mi Calm Calm - N/A   Partly Cloudy
3:46 AM 35.6 °F - 35.6 °F 100% 29.61 in 3.0 mi Calm Calm - N/A   Mostly Cloudy
3:49 AM 35.6 °F - 35.6 °F 100% 29.61 in 1.8 mi Calm Calm - N/A   Mostly Cloudy
3:51 AM 36.0 °F - 35.1 °F 97% 29.61 in 1.0 mi Calm Calm - N/A   Mist
4:00 AM 35.6 °F - 35.6 °F 100% 29.61 in 0.5 mi Calm Calm - N/A Fog Fog
4:21 AM 37.4 °F 34.9 °F 35.6 °F 93% 29.60 in 2.0 mi SW 3.5 mph - N/A   Overcast
4:28 AM 37.4 °F - 35.6 °F 93% 29.60 in 7.0 mi Calm Calm - N/A   Overcast
4:51 AM 37.0 °F - 36.0 °F 96% 29.59 in 5.0 mi Calm Calm - N/A   Overcast
5:51 AM 37.9 °F 34.4 °F 37.0 °F 97% 29.59 in 9.0 mi NW 4.6 mph - N/A   Overcast
6:03 AM 37.4 °F 33.8 °F 37.4 °F 100% 29.59 in 8.0 mi NW 4.6 mph - N/A   Overcast
6:32 AM 42.8 °F 41.1 °F 39.2 °F 87% 29.59 in 10.0 mi Variable 3.5 mph - N/A   Overcast
6:51 AM 43.0 °F - 41.0 °F 93% 29.60 in 10.0 mi Calm Calm - N/A   Overcast
7:51 AM 42.1 °F 34.2 °F 32.0 °F 67% 29.65 in 10.0 mi NW 16.1 mph - N/A   Overcast
8:51 AM 42.1 °F 35.2 °F 30.0 °F 62% 29.67 in 10.0 mi NW 12.7 mph 20.7 mph N/A   Overcast
9:51 AM 39.9 °F 29.5 °F 21.9 °F 49% 29.70 in 10.0 mi NW 24.2 mph 32.2 mph N/A   Scattered Clouds
10:51 AM 39.9 °F 29.7 °F 18.0 °F 41% 29.73 in 10.0 mi WNW 23.0 mph 34.5 mph N/A   Clear
11:51 AM 39.9 °F 28.6 °F 16.0 °F 38% 29.74 in 10.0 mi NNW 28.8 mph 38.0 mph N/A   Clear
12:51 PM 39.9 °F 30.2 °F 14.0 °F 35% 29.74 in 10.0 mi NW 20.7 mph 39.1 mph N/A   Clear
1:51 PM 39.0 °F 28.0 °F 12.9 °F 34% 29.74 in 10.0 mi WNW 25.3 mph 39.1 mph N/A   Clear
2:51 PM 37.9 °F 26.8 °F 12.0 °F 35% 29.75 in 10.0 mi NW 24.2 mph 35.7 mph N/A   Clear
3:51 PM 36.0 °F 23.0 °F 10.9 °F 36% 29.78 in 10.0 mi NW 29.9 mph 40.3 mph N/A   Clear
4:51 PM 35.1 °F 22.7 °F 10.0 °F 35% 29.81 in 10.0 mi NW 25.3 mph 38.0 mph N/A   Scattered Clouds
5:51 PM 32.0 °F 18.6 °F 10.0 °F 40% 29.84 in 10.0 mi NW 25.3 mph 39.1 mph N/A   Overcast
6:51 PM 30.9 °F 18.4 °F 10.9 °F 43% 29.86 in 10.0 mi WNW 20.7 mph 27.6 mph N/A   Overcast
7:51 PM 30.0 °F 19.5 °F 12.9 °F 49% 29.89 in 10.0 mi NW 13.8 mph 23.0 mph N/A   Scattered Clouds
8:51 PM 28.9 °F 19.8 °F 14.0 °F 54% 29.91 in 10.0 mi NW 10.4 mph - N/A   Clear
9:51 PM 30.0 °F 19.1 °F 9.0 °F 41% 29.92 in 10.0 mi NW 15.0 mph - N/A   Partly Cloudy
10:51 PM 30.0 °F 22.4 °F 7.0 °F 38% 29.94 in 10.0 mi NNW 8.1 mph - N/A   Clear
11:51 PM 28.0 °F 21.7 °F 3.0 °F 34% 29.95 in 10.0 mi NNW 5.8 mph - N/A   Clear